User: anonymous   Login
Location: Brainerd
(46.3580°N, 94.2010°W)
Time: 22:14:14
(UTC-05:00)
Language:

CZ-4C R/B - Orbit

View from above orbital plane
View from above orbital plane
View from above satellite
View from above satellite

Ground track
Ground track

The orbit data is extracted from the following two-line orbital elements,

1 32290U 07055B   16273.14962021  .00004701  00000-0  13861-3 0  9991
2 32290  97.5274   8.5816 0069079 343.3919  16.5060 15.33165962491804
Epoch (UTC): 29 September 2016 03:35:27
Eccentricity: 0.0069079
inclination: 97.5274°
perigee height: 419 km
apogee height: 513 km
right ascension of ascending node: 8.5816°
argument of perigee: 343.3919°
revolutions per day: 15.33165962
mean anomaly at epoch: 16.5060°
orbit number at epoch: 49180

The dashed part of the orbit path shows where the satellite is in the earth's shadow,  

DLR